User: anonymous   Login
Location: Drummondville
(45.8830°N, 72.4830°W)
Time: 19:02:50
(UTC-04:00)
Language:

TIGRISAT - Orbit

View from above orbital plane
View from above orbital plane
View from above satellite
View from above satellite

Ground track
Ground track

The orbit data is extracted from the following two-line orbital elements,

1 40043U 14033AK  18146.58575596 +.00000119 +00000-0 +25272-4 0  9995
2 40043 097.8119 024.6904 0058602 268.6243 090.8252 14.74136758211124
Epoch (UTC): 26 May 2018 14:03:29
Eccentricity: 0.0058602
inclination: 97.8119°
perigee height: 607 km
apogee height: 689 km
right ascension of ascending node: 24.6904°
argument of perigee: 268.6243°
revolutions per day: 14.74136758
mean anomaly at epoch: 90.8252°
orbit number at epoch: 21112

The dashed part of the orbit path shows where the satellite is in the earth's shadow,  

DLR